SQ7FZR-13 Weather Reports


time (UTC)temp
C
wind
direction
speed
KPH
gust
KPH
rain 1hr
cm
rain 24hr
cm
rain mn
cm
humidity
%
barometer
mb
20260902143821 22 0 0.0 0.0 0.00 0.41 0.41 78 1020.1
20260902143121 22 0 0.0 0.0 0.05 0.41 0.41 78 1020.2
20260902141721 22 22 0.0 1.6 0.05 0.41 0.41 78 1020.2
20260902141021 21 0 0.0 0.0 0.05 0.41 0.41 81 1020.1
20260902140321 21 0 0.0 0.0 0.05 0.41 0.41 83 1020.2
20260902135621 20 0 0.0 0.0 0.05 0.41 0.41 84 1020.0
20260902134921 19 0 0.0 0.0 0.05 0.41 0.41 83 1020.2
20260902134221 18 0 0.0 0.0 0.36 0.41 0.41 81 1020.3
20260902133521 18 0 0.0 0.0 0.36 0.41 0.41 80 1020.3
20260902132821 18 0 0.0 0.0 0.30 0.36 0.36 79 1020.7
20260902132121 18 0 0.0 0.0 0.30 0.36 0.36 79 1020.4
20260902131421 18 0 0.0 0.0 0.30 0.36 0.36 78 1020.6
20260902130021 18 0 0.0 0.0 0.30 0.36 0.36 75 1020.6
20260902124621 20 0 0.0 0.0 0.30 0.36 0.36 73 1020.6
20260902123921 20 22 1.6 4.8 0.00 0.05 0.05 71 1020.9
20260902123221 20 12 8.0 12.9 0.00 0.05 0.05 70 1020.9
20260902122521 21 1 4.8 12.9 0.05 0.05 0.05 68 1020.9
20260902121821 22 181 3.2 11.3 0.05 0.05 0.05 68 1020.7
20260902121120 22 181 1.6 11.3 0.05 0.05 0.05 71 1020.4
20260902120420 21 1 0.0 1.6 0.05 0.05 0.05 74 1020.6
20260902115722 21 1 0.0 1.6 0.05 0.05 0.05 76 1020.7
20260902115021 20 1 0.0 3.2 0.05 0.05 0.05 75 1020.7
20260902113621 20 1 0.0 3.2 0.05 0.05 0.05 72 1021.0
20260902112921 20 17 1.6 4.8 0.05 0.05 0.05 69 1021.1
20260902112220 20 6 6.4 9.7 0.00 0.00 0.00 68 1021.1
20260902111520 21 3 8.0 9.7 0.00 0.00 0.00 66 1021.1
20260902110821 21 1 4.8 8.0 0.00 0.00 0.00 66 1020.8
20260902110121 21 1 4.8 8.0 0.00 0.00 0.00 66 1020.8
20260902105420 21 1 3.2 8.0 0.00 0.00 0.00 67 1020.8
20260902104720 21 1 3.2 8.0 0.00 0.00 0.00 67 1020.8
20260902104020 21 181 0.0 6.4 0.00 0.00 0.00 67 1020.6
20260902103321 21 181 4.8 9.7 0.00 0.00 0.00 66 1020.8
20260902102620 21 181 8.0 9.7 0.00 0.00 0.00 66 1020.7
20260902100520 20 181 4.8 9.7 0.00 0.00 0.00 69 1021.0
20260902095820 20 187 0.0 3.2 0.00 0.00 0.00 70 1021.1
20260902095120 20 16 4.8 12.9 0.00 0.00 0.00 70 1021.0
20260902094420 19 181 3.2 4.8 0.00 0.00 0.00 72 1021.1
20260902093720 19 1 4.8 4.8 0.00 0.00 0.00 72 1021.3
20260902093021 19 1 1.6 4.8 0.00 0.00 0.00 73 1021.2
20260902092320 19 1 0.0 3.2 0.00 0.00 0.00 74 1021.2
20260902090920 18 181 0.0 3.2 0.00 0.00 0.00 74 1021.3
20260902090220 18 181 1.6 3.2 0.00 0.00 0.00 74 1021.1
20260902085520 18 0 0.0 0.0 0.00 0.00 0.00 75 1021.4
20260902084820 18 0 0.0 0.0 0.00 0.00 0.00 76 1021.1
20260902084120 18 181 1.6 3.2 0.00 0.00 0.00 76 1021.2
20260902083421 18 138 3.2 6.4 0.00 0.00 0.00 76 1021.1
20260902082720 18 181 1.6 3.2 0.00 0.00 0.00 76 1021.1
20260902082020 17 181 1.6 3.2 0.00 0.00 0.00 77 1021.1
20260902081320 17 0 0.0 0.0 0.00 0.00 0.00 77 1021.1
20260902080620 17 22 0.0 1.6 0.00 0.00 0.00 78 1021.2
20260902075920 17 179 0.0 3.2 0.00 0.00 0.00 78 1021.1
20260902075220 17 181 1.6 3.2 0.00 0.00 0.00 78 1021.1
20260902074520 17 181 4.8 9.7 0.00 0.00 0.00 78 1020.9
20260902073820 16 181 4.8 9.7 0.00 0.00 0.00 79 1021.1
20260902073120 16 181 1.6 4.8 0.00 0.00 0.00 79 1021.0
20260902071720 16 156 0.0 1.6 0.00 0.00 0.00 81 1020.8
20260902071020 16 181 0.0 1.6 0.00 0.00 0.00 81 1020.9
20260902070320 16 165 0.0 1.6 0.00 0.00 0.00 82 1020.8
20260902065620 16 160 0.0 1.6 0.00 0.00 0.00 82 1020.7
20260902064921 15 181 1.6 4.8 0.00 0.00 0.00 83 1020.6
20260902064221 15 1 3.2 6.4 0.00 0.00 0.00 84 1020.5
20260902063520 15 1 1.6 6.4 0.00 0.00 0.00 83 1020.5
20260902062820 15 172 1.6 11.3 0.00 0.00 0.00 84 1020.5
20260902062120 14 159 3.2 11.3 0.00 0.00 0.00 84 1020.4
20260902061420 14 181 3.2 6.4 0.00 0.00 0.00 84 1020.4
20260902060720 14 181 1.6 4.8 0.00 0.00 0.00 84 1020.3
20260902060020 13 181 0.0 1.6 0.00 0.00 0.00 84 1020.4
20260902054620 13 181 4.8 12.9 0.00 0.00 0.00 85 1020.4
20260902053920 13 168 6.4 12.9 0.00 0.00 0.00 85 1020.5
20260902052520 13 0 0.0 0.0 0.00 0.00 0.00 85 1020.4
20260902051820 13 22 1.6 4.8 0.00 0.00 0.00 85 1020.3
20260902051120 12 181 1.6 3.2 0.00 0.00 0.00 85 1020.2
20260902050420 12 181 3.2 8.0 0.00 0.00 0.00 85 1020.2
20260902045720 12 181 3.2 6.4 0.00 0.00 0.00 85 1020.2
20260902045020 12 181 3.2 6.4 0.00 0.00 0.00 85 1020.0
20260902044320 12 181 3.2 6.4 0.00 0.00 0.00 86 1020.1
20260902043620 12 0 0.0 0.0 0.00 0.00 0.00 86 1020.0
20260902042220 12 0 0.0 0.0 0.00 0.00 0.00 86 1019.8
20260902041519 12 0 0.0 0.0 0.00 0.00 0.00 86 1019.8
20260902040820 12 0 0.0 0.0 0.00 0.00 0.00 85 1019.8
20260902035719 12 0 0.0 0.0 0.00 0.00 0.00 86 1019.9
20260902035019 12 0 0.0 0.0 0.00 0.00 0.00 86 1019.9
20260902034319 12 0 0.0 0.0 0.00 0.00 0.00 86 1019.8
20260902033619 12 0 0.0 0.0 0.00 0.00 0.00 86 1019.8
20260902032919 12 0 0.0 0.0 0.00 0.00 0.00 86 1019.8
20260902032219 12 0 0.0 0.0 0.00 0.00 0.00 86 1019.9
20260902031519 12 0 0.0 0.0 0.00 0.00 0.00 86 1019.9
20260902030819 12 0 0.0 0.0 0.00 0.00 0.00 86 1019.9
20260902025721 12 0 0.0 0.0 0.00 0.00 0.00 86 1019.9
20260902025022 12 0 0.0 0.0 0.00 0.00 0.00 86 1020.0
20260902024321 12 0 0.0 0.0 0.00 0.00 0.00 86 1019.9
20260902023621 12 0 0.0 0.0 0.00 0.00 0.00 86 1020.0
20260902022921 12 0 0.0 0.0 0.00 0.00 0.00 86 1020.0
20260902022221 12 0 0.0 0.0 0.00 0.00 0.00 86 1020.1
20260902020821 12 0 0.0 0.0 0.00 0.00 0.00 86 1020.0
20260902015724 12 0 0.0 0.0 0.00 0.00 0.00 86 1019.9
20260902014324 12 0 0.0 0.0 0.00 0.00 0.00 85 1020.0
20260902012924 12 0 0.0 0.0 0.00 0.00 0.00 85 1019.9
20260902011524 12 0 0.0 0.0 0.00 0.00 0.00 85 1019.9
20260902010824 12 0 0.0 0.0 0.00 0.00 0.00 85 1019.9
20260902005721 12 0 0.0 0.0 0.00 0.00 0.00 84 1019.8
20260902005021 12 0 0.0 0.0 0.00 0.00 0.00 84 1019.8
20260902004321 12 0 0.0 0.0 0.00 0.00 0.00 85 1019.9
20260902003621 12 0 0.0 0.0 0.00 0.00 0.00 84 1019.8
20260902002921 12 0 0.0 0.0 0.00 0.00 0.00 84 1019.8
20260902002221 12 0 0.0 0.0 0.00 0.00 0.00 84 1019.8
20260902001521 12 0 0.0 0.0 0.00 0.00 0.00 84 1019.8
20260902000821 13 0 0.0 0.0 0.00 0.00 0.00 84 1019.8
20260901235621 13 0 0.0 0.0 0.00 0.00 0.00 83 1019.8
20260901234921 13 0 0.0 0.0 0.00 0.00 0.00 83 1019.8
20260901234221 13 0 0.0 0.0 0.00 0.00 0.00 83 1019.7
20260901233521 13 0 0.0 0.0 0.00 0.00 0.00 83 1019.7
20260901231420 13 0 0.0 0.0 0.00 0.00 0.00 83 1019.5
20260901230720 13 0 0.0 0.0 0.00 0.00 0.00 82 1019.4
20260901230021 13 0 0.0 0.0 0.00 0.00 0.00 82 1019.5
20260901224620 13 0 0.0 0.0 0.00 0.00 0.00 82 1019.5
20260901223920 13 0 0.0 0.0 0.00 0.00 0.00 82 1019.4
20260901223220 13 0 0.0 0.0 0.00 0.00 0.00 82 1019.5
20260901222520 13 0 0.0 0.0 0.00 0.00 0.00 82 1019.4
20260901221120 13 0 0.0 0.0 0.00 0.00 0.00 81 1019.5
20260901220420 13 0 0.0 0.0 0.00 0.00 0.00 81 1019.4
20260901215720 13 0 0.0 0.0 0.00 0.00 0.00 81 1019.4
20260901215020 13 0 0.0 0.0 0.00 0.00 0.00 80 1019.5
20260901214320 14 0 0.0 0.0 0.00 0.00 0.00 80 1019.4
20260901213620 14 0 0.0 0.0 0.00 0.00 0.00 79 1019.6
20260901212220 14 135 0.0 0.0 0.00 0.00 0.00 79 1019.6
20260901211520 14 135 0.0 0.0 0.00 0.00 0.00 79 1019.6
20260901210120 15 0 0.0 0.0 0.00 0.00 0.00 78 1019.5
20260901205420 15 0 0.0 0.0 0.00 0.00 0.00 78 1019.6
20260901204020 15 0 0.0 0.0 0.00 0.00 0.00 78 1019.5
20260901203320 15 0 0.0 0.0 0.00 0.00 0.00 78 1019.6
20260901202620 15 181 0.0 1.6 0.00 0.00 0.00 78 1019.5
20260901201920 15 181 0.0 1.6 0.00 0.00 0.00 77 1019.5
20260901201220 15 0 0.0 0.0 0.00 0.00 0.00 77 1019.4
20260901195821 15 0 0.0 0.0 0.00 0.00 0.00 77 1019.6
20260901195120 15 0 0.0 0.0 0.00 0.00 0.00 76 1019.5
20260901194420 15 0 0.0 0.0 0.00 0.00 0.00 76 1019.6
20260901193020 15 0 0.0 0.0 0.00 0.00 0.00 75 1019.7
20260901192320 15 0 0.0 0.0 0.00 0.00 0.00 75 1019.7
20260901191621 15 0 0.0 0.0 0.00 0.00 0.00 74 1019.8
20260901190920 16 0 0.0 0.0 0.00 0.00 0.00 74 1019.8
20260901185520 16 0 0.0 0.0 0.00 0.00 0.00 73 1019.6
20260901184820 16 0 0.0 0.0 0.00 0.00 0.00 72 1019.6
20260901184120 16 0 0.0 0.0 0.00 0.00 0.00 72 1019.7
20260901183420 16 0 0.0 0.0 0.00 0.00 0.00 71 1019.4
20260901182720 17 0 0.0 0.0 0.00 0.00 0.00 70 1019.4
20260901182020 17 0 0.0 0.0 0.00 0.00 0.00 69 1019.3
20260901181320 17 0 0.0 0.0 0.00 0.00 0.00 69 1019.5
20260901180620 17 0 0.0 0.0 0.00 0.00 0.00 68 1019.4
20260901175920 18 0 0.0 0.0 0.00 0.00 0.00 67 1019.2
20260901175220 18 0 0.0 0.0 0.00 0.00 0.00 67 1019.1
20260901174520 18 0 0.0 0.0 0.00 0.00 0.00 66 1019.1
20260901173820 18 0 0.0 0.0 0.00 0.00 0.00 66 1019.1
20260901173120 18 0 0.0 0.0 0.00 0.00 0.00 66 1019.2
20260901172420 18 0 0.0 0.0 0.00 0.00 0.00 66 1019.0
20260901171720 18 0 0.0 0.0 0.00 0.00 0.00 65 1018.9
20260901171020 18 181 1.6 6.4 0.00 0.00 0.00 65 1018.9
20260901170320 18 183 6.4 14.5 0.00 0.00 0.00 64 1018.9
20260901165620 18 199 6.4 14.5 0.00 0.00 0.00 64 1019.0
20260901164920 19 179 3.2 9.7 0.00 0.00 0.00 64 1018.9
20260901162820 19 40 3.2 9.7 0.00 0.00 0.00 63 1018.9
20260901162120 19 181 1.6 6.4 0.00 0.00 0.00 63 1018.8
20260901160720 19 174 3.2 9.7 0.00 0.00 0.00 63 1018.8
20260901160019 19 176 8.0 9.7 0.00 0.10 0.00 63 1018.8
20260901155320 19 123 8.0 12.9 0.00 0.10 0.00 63 1018.7
20260901154620 19 133 4.8 12.9 0.00 0.10 0.00 63 1018.7
20260901153920 19 122 3.2 3.2 0.00 0.10 0.00 62 1018.7
20260901153220 20 179 4.8 17.7 0.00 0.10 0.00 62 1018.4
20260901152520 20 157 3.2 4.8 0.00 0.10 0.00 61 1018.5
20260901151820 20 106 4.8 8.0 0.00 0.10 0.00 62 1018.4
20260901151119 20 160 4.8 9.7 0.00 0.10 0.00 62 1018.4
20260901150419 19 181 6.4 9.7 0.00 0.10 0.00 62 1018.3
20260901145719 19 191 4.8 9.7 0.00 0.10 0.00 62 1018.3
20260901144320 20 181 1.6 3.2 0.00 0.25 0.00 62 1018.3